Regional Weather Roundup
Issued by NWS Bismarck, ND

Home | Current Version | Previous Version | Text Only | Print | Product List | Glossary Off
Versions: 1 2 3 4 5 6 7 8 9 10 11 12 13 14 15 16 17 18 19 20 21 22 23 24 25 26 27 28 29 30 31 32 33 34 35 36 37 38 39 40 41 42 43 44 45 46 47 48 49 50

000
ASUS43 KBIS 222310
RWRBIS

NWR BROADCAST TEXT
NATIONAL WEATHER SERVICE BISMARCK ND
600 PM CDT MON MAY 22 2017

NOTE: "FAIR" INDICATES FEW OR NO CLOUDS BELOW 12,000 FEET WITH NO
SIGNIFICANT WEATHER AND/OR OBSTRUCTIONS TO VISIBILITY.


CITY           SKY/WX    TMP DP  RH WIND       PRES   REMARKS
WILLISTON      CLOUDY    67  31  26 N18G26    30.06S
MINOT          CLOUDY    63  36  36 N16       29.96F
MINOT AFB      CLOUDY    63  32  31 N17       29.96R
BISMARCK       CLOUDY    61  39  44 NW17      29.99S
DICKINSON      PTSUNNY   60  32  34 N16G23    30.03S
GARRISON         N/A     59  36  42 N8        29.98F
HETTINGER ARPT PTSUNNY   58  34  40 N13G23    30.06R
JAMESTOWN      CLOUDY    54  41  61 N16       29.92F
HAZEN          FAIR      63  34  34 NW16G26   30.01F
LINTON         FAIR      57  37  47 N22G30    30.00R
MANDAN         LGT RAIN  55  41  58 N16G26    30.00S
STANLEY        MOCLDY    61  34  36 N16G22    30.05S
TIOGA          CLOUDY    63  32  31 N18G28    30.05S
WATFORD CITY   MOCLDY    63  37  39 N14       30.05R
$$

CITY           SKY/WX    TMP DP  RH WIND       PRES   REMARKS
GRAND FORKS    CLOUDY    52  49  89 N12       29.87F
GRAND FORKS AF CLOUDY    50  48  93 N10       29.88S
DEVILS LAKE    CLOUDY    51  42  71 NE18      29.95R
FARGO          CLOUDY    51  44  77 N13       29.88R
CAVALIER       MOCLDY    52  48  87 N13G18    29.90S
GRAFTON        LGT RAIN  48  48 100 N14G22    29.90S
GWINNER        CLOUDY    54  43  66 MISG      29.91R
LANGDON        CLOUDY    50  46  87 N18       29.94R
ROLLA          CLOUDY    54  37  54 NE23G31   29.97R
$$

CITY           SKY/WX    TMP DP  RH WIND       PRES   REMARKS
ABERDEEN       CLOUDY    58  38  47 N16G25    29.91S
MOBRIDGE       CLOUDY    60  37  42 N23G29    29.95R
BUFFALO          N/A     53  43  68 N20G37    30.02R
RAPID CITY     FAIR      57  39  51 N23G35    30.07S
GLASGOW        CLOUDY    68  31  25 N20G29    30.13R
SIDNEY         FAIR      67  35  30 N16       30.07S
WOLF POINT     FAIR      67  33  28 N10       30.10F
GLENDIVE       PTSUNNY   64  35  34 N17G24    30.10R
MILES CITY     CLOUDY    60  36  40 NE15G29   30.13R
BAKER          FAIR      60  40  47 NW13      30.11S
$$

CITY           SKY/WX    TMP DP  RH WIND       PRES   REMARKS
BILLINGS       FAIR      69  36  29 N15       30.17S
GREAT FALLS    PTSUNNY   67  37  33 CALM      30.20F
REGINA         MOSUNNY   68  32  26 N16G22    30.09F
ESTEVAN        PTSUNNY   64  34  32 N18G31    30.03S
$$





USA.gov is the U.S. government's official web portal to all federal, state and local government web resources and services.